Flag for USA

Past Weather in San Buenaventura, California, USA — Yesterday and Last 2 Weeks

Now
64 °F

Clear.


Feels Like: 64 °F
Forecast: 72 / 61 °F
Wind: 3 mph from West

Location: Oxnard Airport
Current Time: Sep 19, 2020 at 9:27:40 pm
Latest Report: Sep 19, 2020 at 8:51 pm
Visibility: 9 mi
Pressure29.82 "Hg
Humidity: 87%
Dew Point: 60 °F
Location of San BuenaventuraLocation

Past Weather in San Buenaventura — Graph

°F

San Buenaventura Temperature Yesterday

Maximum temperature yesterday: 75 °F (at 12:51 pm)
Minimum temperature yesterday: 60 °F (at 5:51 am)
Average temperature yesterday: 67 °F

High & Low Weather Summary for the Past Weeks

 TemperatureHumidityPressure
High83 °F (Sep 6, 1:51 pm)100% (Sep 5, 3:51 am)30.06 "Hg (Sep 5, 3:51 am)
Low54 °F (Sep 14, 5:51 am)53% (Sep 6, 1:51 pm)29.66 "Hg (Sep 8, 4:51 pm)
Average64 °F89%29.88 "Hg
* Reported Sep 4 7:51 pm — Sep 19 7:51 pm, San Buenaventura. Weather by CustomWeather, © 2020

Note: Actual official high and low records may vary slightly from our data, if they occured in-between our weather recording intervals... More about our weather records

San Buenaventura Weather History for the Previous 24 Hours

Scroll right to see more
 ConditionsComfort  
Time TempWeatherWind HumidityBarometerVisibility
7:51 pm
Sat, Sep 19
63 °FClear.No wind93%29.80 "Hg9 mi
6:51 pm64 °FSunny.6 mph87%29.80 "Hg8 mi
5:51 pm67 °FSunny.7 mph79%29.80 "Hg9 mi
4:51 pm69 °FSunny.9 mph73%29.80 "Hg10 mi
3:51 pm69 °FSunny.9 mph76%29.81 "Hg10 mi
2:51 pm71 °FSunny.14 mph68%29.83 "Hg10 mi
1:51 pm70 °FSunny.13 mph71%29.84 "Hg10 mi
12:51 pm70 °FSunny.14 mph68%29.85 "Hg10 mi
11:51 am69 °FSunny.12 mph70%29.87 "Hg10 mi
10:51 am69 °FSunny.8 mph70%29.88 "Hg10 mi
9:51 am67 °FSunny.8 mph79%29.88 "Hg10 mi
8:51 am65 °FSunny.No wind85%29.88 "Hg9 mi
7:51 am61 °FFog.No wind90%29.87 "Hg6 mi
6:51 am58 °FFog.No wind93%29.85 "Hg6 mi
5:51 am59 °FClear.No wind93%29.85 "Hg8 mi
4:51 am60 °FPassing clouds.3 mph96%29.84 "Hg8 mi
3:51 am61 °FClear.7 mph93%29.84 "Hg9 mi
2:51 am62 °FClear.3 mph90%29.84 "Hg7 mi
1:51 am63 °FClear.No wind90%29.85 "Hg8 mi
12:51 am63 °FClear.5 mph87%29.85 "Hg9 mi
11:51 pm
Fri, Sep 18
63 °FClear.6 mph90%29.86 "Hg9 mi
10:51 pm64 °FClear.5 mph87%29.86 "Hg8 mi
9:51 pm65 °FClear.7 mph81%29.85 "Hg10 mi
Weather by CustomWeather, © 2020

See weather overview